Etusivu
METAR-TAF:

METAR-TAF

Lentoasemat :

Honningsvåg, Norja

Leveyspiiri: 71-01N, Pituuspiiri: 025-59E, korkeus merenpinnasta: 1 m

Tämänhetkinen sää

Tämä raportti tehtiin 56 minuuttia sitten, kello 14.50 UTC
Tuuli 13 kn eri suunnista
Lämpötila 8°C
Kosteus 71%
Ilmanpaine 1030 hPa
Näkyvyys 10 km tai enemmän
ei pilviä alle 1500 m:ssä eikä cumulonimbus-pilviä

METAR: ENHV 211450Z VRB13KT CAVOK 08/03 Q1030

Aika: 17:46 (15:46 UTC)


TAF: puuttuu

Säähavainnot ja -ennusteet yli 4000 lentoasemalta (METAR- ja TAF-raportit).

Käytössä olevat sääasemat on merkitty karttaan keltaisilla ja punaisilla pisteillä.

Aseta hiiri pisteen päälle nähdäksesi sääaseman nimen.

Klikkaa sitten nähdäksesi säähavainnot ja -ennusteet.

Kartan vaihtaminen: klikkaa mustalla rastilla varustettuja vihreitä pisteitä, niin voit zoomata sisään; viivalla varustettua vihreää pistettä, niin voit zoomata ulos tai vihreitä nuolia, niin pääset viereisille kartoille.


METAR-TAF: